Location: London
(51.5074°N, 0.1278°W)
Time: 15:06:41
(UTC+01:00)

ISS - Pass Details

Date: 01 April 2018
Orbit: 403 x 406 km, 51.6° (Epoch: 22 April)

Event Time Altitude Azimuth Distance (km) Brightness Sun altitude
Rises 20:40:43 0° 267° (W) 2,333 1.3 -10.9°
Reaches altitude 10° 20:42:48 10° 268° (W) 1,473 0.2 -11.2°
Maximum altitude 20:46:07 86° 357° (N) 415 -3.8 -11.6°
Enters shadow 20:48:28 18° 86° (E) 1,088 -2.2 -12.0°
